Weather History for Canon City Fremont County, CO

Change the Weather History Date:

Sunday, April 13, 2014

  Actual Average (KPUB) Record (KPUB)
Temperature  
Mean Temperature 42 °F 50 °F  
Max Temperature 59 °F 66 °F 90 °F (2006)
Min Temperature 26 °F 33 °F 11 °F (1997)
Degree Days  
Heating Degree Days 22 15  
Month to date heating degree days 222  
Since 1 July heating degree days 5227  
Cooling Degree Days 0 0  
Month to date cooling degree days 0  
Year to date cooling degree days 0  
Moisture  
Dew Point 32 °F    
Average Humidity 77    
Maximum Humidity 100    
Minimum Humidity 34    
Precipitation  
Precipitation 0.03 in 0.04 in 1.99 in (1967)
Month to date precipitation 0.51  
Year to date precipitation 2.09  
Snow  
Snow 0.00 in 0.10 in 3.30 in (1945)
Month to date snowfall 2.0  
Since 1 July snowfall 29.5  
Snow Depth -    
Sea Level Pressure  
Sea Level Pressure 29.86 in    
Wind  
Wind Speed 13 mph (SE)    
Max Wind Speed 22 mph    
Max Gust Speed 30 mph    
Visibility 6 miles    
Events Rain , Snow , Thunderstorm    
T = Trace of Precipitation, MM = Missing Value Source: NWS Daily Summary

Daily Weather History Graph

Daily Weather History Graph

Search for Another Location

Airport:

Trip Planner

Search our weather history database for the weather conditions in past years. The results will help you decide how hot, cold, wet, or windy it might be!

Date:

Astronomy

Apr. 13, 2014 Rise Set
Actual Time 6:27 AM MDT 7:35 PM MDT
Civil Twilight 6:00 AM MDT 8:02 PM MDT
Nautical Twilight 5:27 AM MDT 8:34 PM MDT
Astronomical Twilight 4:53 AM MDT 9:08 PM MDT
Moon 6:16 PM MDT (4/13) 5:26 AM MDT (4/13)
Length of Visible Light 14h 02m
Length of Day
13h 07m
Waxing Gibbous, 97% of the Moon is Illuminated
Apr 13
Waxing Gibbous
Apr 15
Full
Apr 22
Last Quarter
Apr 29
New
May 6
First Quarter

Hourly Weather History & Observations

Time (MDT) Temp. Windchill Dew Point Humidity Pressure Visibility Wind Dir Wind Speed Gust Speed Precip Events Conditions
12:15 AM 59.0 °F - 30.2 °F 34% 29.66 in 10.0 mi West 11.5 mph - N/A   Overcast
12:35 AM 59.0 °F - 30.2 °F 34% 29.66 in 10.0 mi West 11.5 mph - N/A   Overcast
12:55 AM 59.0 °F - 30.2 °F 34% 29.66 in 10.0 mi West 13.8 mph - N/A   Overcast
1:15 AM 57.2 °F - 30.2 °F 36% 29.68 in 10.0 mi NNW 6.9 mph - N/A   Overcast
1:35 AM 59.0 °F - 32.0 °F 36% 29.68 in 10.0 mi ENE 9.2 mph - N/A   Overcast
1:55 AM 55.4 °F - 33.8 °F 44% 29.68 in 10.0 mi ENE 6.9 mph - N/A   Overcast
2:15 AM 53.6 °F - 33.8 °F 47% 29.68 in 10.0 mi SE 5.8 mph - N/A   Mostly Cloudy
2:35 AM 53.6 °F - 33.8 °F 47% 29.68 in 10.0 mi South 9.2 mph - N/A   Overcast
2:55 AM 55.4 °F - 33.8 °F 44% 29.69 in 10.0 mi South 8.1 mph - N/A Thunderstorm Overcast
3:15 AM 55.4 °F - 33.8 °F 44% 29.70 in 10.0 mi South 13.8 mph 18.4 mph N/A Thunderstorm Overcast
3:35 AM 55.4 °F - 33.8 °F 44% 29.69 in 10.0 mi South 11.5 mph 20.7 mph N/A   Overcast
3:55 AM 53.6 °F - 35.6 °F 51% 29.70 in 10.0 mi SE 6.9 mph - N/A   Overcast
4:15 AM 53.6 °F - 37.4 °F 54% 29.70 in 10.0 mi ESE 8.1 mph - N/A   Overcast
4:35 AM 51.8 °F - 37.4 °F 58% 29.70 in 10.0 mi SE 8.1 mph - N/A   Overcast
4:55 AM 50.0 °F - 39.2 °F 66% 29.71 in 10.0 mi ESE 10.4 mph - N/A   Overcast
5:15 AM 48.2 °F - 39.2 °F 71% 29.72 in 10.0 mi SE 9.2 mph - N/A   Overcast
5:35 AM 46.4 °F 42.4 °F 39.2 °F 76% 29.72 in 10.0 mi SE 8.1 mph - N/A   Overcast
5:55 AM 46.4 °F 41.9 °F 37.4 °F 71% 29.72 in 10.0 mi East 9.2 mph - N/A   Overcast
6:15 AM 48.2 °F - 37.4 °F 66% 29.74 in 10.0 mi East 11.5 mph - N/A   Mostly Cloudy
6:25 AM 46.4 °F 40.1 °F 37.4 °F 71% 29.74 in 10.0 mi SE 15.0 mph 19.6 mph N/A   Overcast
11:35 AM 41.0 °F 33.1 °F 37.4 °F 87% 29.85 in 10.0 mi East 15.0 mph 19.6 mph N/A Rain Light Rain
11:55 AM 41.0 °F 32.5 °F 35.6 °F 81% 29.85 in 10.0 mi East 17.3 mph 21.9 mph N/A   Overcast
12:15 PM 41.0 °F 32.2 °F 35.6 °F 81% 29.84 in 10.0 mi East 18.4 mph 21.9 mph N/A   Overcast
12:35 PM 41.0 °F 32.5 °F 33.8 °F 76% 29.84 in 10.0 mi East 17.3 mph 25.3 mph N/A   Overcast
12:55 PM 39.2 °F 30.2 °F 33.8 °F 81% 29.84 in 10.0 mi East 17.3 mph 21.9 mph N/A   Overcast
1:15 PM 39.2 °F 29.3 °F 33.8 °F 81% 29.85 in 10.0 mi East 20.7 mph - N/A   Overcast
1:35 PM 37.4 °F 26.9 °F 32.0 °F 81% 29.84 in 2.5 mi ESE 20.7 mph 26.5 mph 0.01 in Snow Light Snow
1:55 PM 35.6 °F 25.2 °F 32.0 °F 87% 29.85 in 2.0 mi East 18.4 mph 25.3 mph 0.01 in Snow Light Snow
2:15 PM 35.6 °F 24.5 °F 33.8 °F 93% 29.85 in 5.0 mi East 20.7 mph 26.5 mph N/A   Overcast
2:35 PM 35.6 °F 25.9 °F 32.0 °F 87% 29.89 in 2.5 mi East 16.1 mph - N/A Snow Light Snow
2:55 PM 35.6 °F 25.2 °F 32.0 °F 87% 29.87 in 1.8 mi ESE 18.4 mph - 0.01 in Snow Light Snow
3:15 PM 35.6 °F 25.2 °F 32.0 °F 87% 29.87 in 2.0 mi ESE 18.4 mph 21.9 mph N/A Thunderstorm Thunderstorm
3:35 PM 35.6 °F 26.2 °F 32.0 °F 87% 29.88 in 4.0 mi ESE 15.0 mph - N/A Snow Light Snow
3:55 PM 33.8 °F 23.9 °F 32.0 °F 93% 29.89 in 1.0 mi ESE 15.0 mph 18.4 mph N/A Snow Light Snow
4:15 PM 33.8 °F 25.8 °F 32.0 °F 93% 29.89 in 0.5 mi SE 10.4 mph - N/A Snow Light Snow
4:35 PM 32.0 °F 22.5 °F 32.0 °F 100% 29.90 in 0.8 mi SE 12.7 mph 17.3 mph N/A Snow Light Snow
4:55 PM 32.0 °F 23.6 °F 32.0 °F 100% 29.89 in 0.5 mi ESE 10.4 mph - 0.01 in Snow Snow
5:15 PM 32.0 °F 22.1 °F 32.0 °F 100% 29.92 in 0.5 mi SE 13.8 mph 17.3 mph N/A Snow Snow
5:35 PM 32.0 °F 21.2 °F 32.0 °F 100% 29.92 in 1.2 mi SE 16.1 mph 20.7 mph N/A Snow Light Snow
5:55 PM 32.0 °F 21.6 °F 32.0 °F 100% 29.94 in 1.0 mi SE 15.0 mph - N/A Snow Light Snow
6:15 PM 32.0 °F - 32.0 °F 100% 29.93 in 0.2 mi North - - N/A Snow Snow
6:35 PM 32.0 °F 20.1 °F 32.0 °F 100% 29.92 in 1.0 mi ESE 19.6 mph - N/A Snow Light Snow
6:55 PM 32.0 °F 20.1 °F 32.0 °F 100% 29.95 in 0.8 mi SE 19.6 mph - N/A Snow Light Snow
7:15 PM 30.2 °F 17.4 °F 30.2 °F 100% 29.95 in 0.8 mi SE 20.7 mph - N/A Snow Light Snow
7:35 PM 30.2 °F 18.5 °F 28.4 °F 93% 29.95 in 1.2 mi SE 17.3 mph - N/A Snow Light Snow
7:55 PM 30.2 °F 18.9 °F 28.4 °F 93% 29.98 in 5.0 mi SSE 16.1 mph - N/A   Overcast
8:15 PM 28.4 °F 16.6 °F 26.6 °F 93% 30.00 in 10.0 mi South 16.1 mph - N/A   Overcast
8:35 PM 28.4 °F 16.6 °F 26.6 °F 93% 30.02 in 7.0 mi South 16.1 mph - N/A Snow Light Snow
8:55 PM 28.4 °F 16.6 °F 24.8 °F 86% 30.04 in 1.8 mi South 16.1 mph 24.2 mph N/A Snow Light Snow
9:15 PM 26.6 °F 14.7 °F 24.8 °F 93% 30.06 in 2.5 mi South 15.0 mph 23.0 mph N/A Snow Light Snow
9:35 PM 26.6 °F 14.3 °F 24.8 °F 93% 30.07 in 4.0 mi South 16.1 mph 24.2 mph N/A Snow Light Snow
9:55 PM 26.6 °F 13.4 °F 24.8 °F 93% 30.09 in 2.5 mi SSW 18.4 mph 27.6 mph N/A Snow Light Snow
10:15 PM 26.6 °F 12.4 °F 24.8 °F 93% 30.10 in 1.2 mi South 21.9 mph 28.8 mph N/A Snow Light Snow
10:35 PM 26.6 °F 12.7 °F 24.8 °F 93% 30.11 in 2.0 mi South 20.7 mph 29.9 mph N/A Snow Light Snow
10:55 PM 26.6 °F 13.1 °F 23.0 °F 86% 30.12 in 1.8 mi South 19.6 mph 29.9 mph N/A Snow Light Snow
11:15 PM 26.6 °F 13.4 °F 23.0 °F 86% 30.14 in 2.0 mi South 18.4 mph 25.3 mph N/A Snow Light Snow
11:35 PM 26.6 °F 13.4 °F 23.0 °F 86% 30.15 in 3.0 mi South 18.4 mph 21.9 mph N/A Snow Light Snow
11:55 PM 26.6 °F 14.7 °F 23.0 °F 86% 30.16 in 4.0 mi South 15.0 mph 25.3 mph N/A Snow Light Snow